Weather History for Perth, WE

Change the Weather History Date:

Friday, November 8, 2013

  Actual Average Record
Temperature  
Mean Temperature 71 °F -  
Max Temperature 85 °F 80 °F 87 °F (2003)
Min Temperature 57 °F 56 °F 46 °F (1999)
Cooling Degree Days 6    
Growing Degree Days 21 (Base 50)    
Moisture  
Dew Point 46 °F    
Average Humidity 42    
Maximum Humidity 77    
Minimum Humidity 16    
Precipitation  
Precipitation 0.00 in 0.03 in - ()
Sea Level Pressure  
Sea Level Pressure 30.07 in    
Wind  
Wind Speed 17 mph ()    
Max Wind Speed 25 mph    
Max Gust Speed 38 mph    
Visibility 10.3 miles    
Events      
Averages and records for this station are not official NWS values.
T = Trace of Precipitation, MM = Missing Value Source: Averaged Metar Reports

Daily Weather History Graph

Daily Weather History Graph

Search for Another Location

Airport:

Trip Planner

Search our weather history database for the weather conditions in past years. The results will help you decide how hot, cold, wet, or windy it might be!

Date:

Astronomy

Nov. 08, 2013 Rise Set
Actual Time 5:13 AM AWST 6:47 PM AWST
Civil Twilight 4:46 AM AWST 7:13 PM AWST
Nautical Twilight 4:15 AM AWST 7:44 PM AWST
Astronomical Twilight 3:42 AM AWST 8:17 PM AWST
Moon 9:32 AM AWST (11/8) 11:29 PM AWST (11/8)
Length of Visible Light 14h 26m
Length of Day
13h 34m
Waxing Crescent, 27% of the Moon is Illuminated
Nov 8
Waxing Crescent
Nov 10
First Quarter
Nov 17
Full
Nov 26
Last Quarter
Dec 3
New

Hourly Weather History & Observations

Time (AWST) Temp. Dew Point Humidity Pressure Visibility Wind Dir Wind Speed Gust Speed Precip Events Conditions
12:00 AM 65 °F 44 °F 36% 30.09 in 19 mi East 20.7 mph - -   Partly Cloudy
12:00 AM 66.2 °F 44.6 °F 46% 30.09 in - East 20.7 mph - N/A   Clear
12:30 AM 64.4 °F 44.6 °F 49% 30.06 in - East 21.9 mph - N/A   Clear
12:48 AM 64.4 °F 44.6 °F 49% 30.06 in - East 23.0 mph 34.5 mph N/A   Clear
1:04 AM 62.6 °F 44.6 °F 52% 30.06 in - East 23.0 mph 34.5 mph N/A   Clear
1:30 AM 62.6 °F 44.6 °F 52% 30.06 in - East 24.2 mph - N/A   Clear
2:00 AM 62 °F 45 °F 42% 30.08 in - East 23.0 mph - -  
2:00 AM 62.6 °F 44.6 °F 52% 30.06 in - East 23.0 mph - N/A   Clear
2:30 AM 60.8 °F 44.6 °F 55% 30.06 in - East 24.2 mph - N/A   Clear
3:00 AM 61 °F 44 °F 43% 30.08 in 19 mi East 24.2 mph - -   Partly Cloudy
3:00 AM 60.8 °F 44.6 °F 55% 30.06 in - East 24.2 mph - N/A   Clear
3:09 AM 60.8 °F 44.6 °F 55% 30.06 in - East 25.3 mph 38.0 mph N/A   Clear
3:30 AM 59.0 °F 44.6 °F 59% 30.06 in - East 23.0 mph 34.5 mph N/A   Clear
4:00 AM 59.0 °F 44.6 °F 59% 30.06 in - East 23.0 mph - N/A   Clear
4:34 AM 59.0 °F 44.6 °F 59% 30.09 in - East 23.0 mph 34.5 mph N/A   Clear
5:00 AM 58 °F 44 °F 49% 30.10 in - East 24.2 mph - -  
5:00 AM 57.2 °F 44.6 °F 63% 30.09 in - East 24.2 mph - N/A   Clear
5:30 AM 57.2 °F 42.8 °F 59% 30.09 in - East 23.0 mph - N/A   Clear
6:00 AM 58 °F 43 °F 46% 30.12 in 19 mi East 24.2 mph - -   Smoke
6:00 AM 57.2 °F 42.8 °F 59% 30.09 in - East 24.2 mph - N/A   Clear
6:30 AM 59.0 °F 42.8 °F 55% 30.12 in - East 23.0 mph 35.7 mph N/A   Clear
7:00 AM 60.8 °F 42.8 °F 52% 30.12 in - ENE 21.9 mph - N/A   Clear
7:32 AM 62.6 °F 44.6 °F 52% 30.12 in - ENE 18.4 mph 29.9 mph N/A   Clear
8:00 AM 64 °F 44 °F 37% 30.14 in - ENE 18.4 mph - -  
8:00 AM 64.4 °F 44.6 °F 49% 30.12 in - ENE 18.4 mph - N/A   Clear
8:30 AM 66.2 °F 44.6 °F 46% 30.12 in - East 16.1 mph - N/A   Clear
9:00 AM 71 °F 46 °F 29% 30.13 in 19 mi East 15.0 mph - -   Smoke
9:00 AM 69.8 °F 46.4 °F 43% 30.12 in - East 15.0 mph - N/A   Clear
9:30 AM 71.6 °F 46.4 °F 41% 30.09 in - East 15.0 mph - N/A   Clear
10:00 AM 73.4 °F 46.4 °F 38% 30.09 in - East 15.0 mph - N/A   Clear
10:30 AM 75.2 °F 46.4 °F 36% 30.09 in - East 11.5 mph 23.0 mph N/A   Clear
11:00 AM 78 °F 47 °F 23% 30.09 in - East 11.5 mph - -  
11:00 AM 77.0 °F 46.4 °F 34% 30.09 in - East 11.5 mph - N/A   Clear
11:30 AM 78.8 °F 46.4 °F 32% 30.06 in - East 6.9 mph - N/A   Clear
11:48 AM 78.8 °F 48.2 °F 34% 30.06 in - East 6.9 mph - N/A   Clear
12:00 PM 79 °F 45 °F 20% 30.07 in 19 mi East 8.1 mph - -   Smoke
12:00 PM 78.8 °F 44.6 °F 30% 30.06 in - East 8.1 mph - N/A   Clear
12:30 PM 80.6 °F 42.8 °F 26% 30.04 in - ENE 8.1 mph - N/A   Clear
1:00 PM 82.4 °F 46.4 °F 28% 30.04 in - ENE 8.1 mph - N/A   Clear
1:30 PM 84.2 °F 44.6 °F 25% 30.04 in - North 4.6 mph - N/A   Clear
2:00 PM 83 °F 46 °F 17% 30.04 in - ESE 8.1 mph - -  
2:00 PM 82.4 °F 46.4 °F 28% 30.04 in - ESE 8.1 mph - N/A   Clear
2:30 PM 84.2 °F 44.6 °F 25% 30.04 in - WNW 5.8 mph - N/A   Clear
3:00 PM 83 °F 44 °F 16% 30.03 in 19 mi SSE 5.8 mph - -   Partly Cloudy
3:00 PM 84.2 °F 44.6 °F 25% 30.01 in - SSE 5.8 mph - N/A   Clear
3:19 PM 82.4 °F 50.0 °F 32% 30.01 in - SW 18.4 mph - N/A   Clear
3:30 PM 82.4 °F 50.0 °F 32% 30.01 in - SW 16.1 mph - N/A   Clear
4:00 PM 82.4 °F 48.2 °F 30% 30.01 in - SW 16.1 mph - N/A   Clear
4:30 PM 80.6 °F 48.2 °F 32% 30.01 in - WSW 15.0 mph - N/A   Clear
5:00 PM 79 °F 47 °F 22% 30.03 in - SW 18.4 mph - -  
5:00 PM 78.8 °F 46.4 °F 32% 30.01 in - SW 18.4 mph - N/A   Clear
5:30 PM 78.8 °F 48.2 °F 34% 30.04 in - SW 16.1 mph - N/A   Clear
6:00 PM 77 °F 46 °F 22% 30.04 in 9 mi SSW 17.3 mph - -   Smoke
6:00 PM 77.0 °F 46.4 °F 34% 30.04 in - SSW 17.3 mph - N/A   Clear
6:30 PM 75.2 °F 48.2 °F 38% 30.04 in - SSW 13.8 mph - N/A   Clear
7:00 PM 73.4 °F 50.0 °F 44% 30.04 in 5.6 mi SSW 15.0 mph - N/A   Clear
7:30 PM 71.6 °F 50.0 °F 46% 30.06 in 5.6 mi SSW 13.8 mph - N/A   Clear
8:00 PM 71 °F 49 °F 35% 30.07 in - South 17.3 mph - -  
8:00 PM 71.6 °F 50.0 °F 46% 30.06 in 5.6 mi South 17.3 mph - N/A   Clear
8:30 PM 69.8 °F 50.0 °F 49% 30.06 in 5.6 mi South 19.6 mph - N/A   Clear
9:00 PM 68 °F 50 °F 41% 30.08 in 6 mi South 18.4 mph - -   Smoke
9:00 PM 68.0 °F 50.0 °F 52% 30.06 in 5.6 mi South 18.4 mph - N/A   Clear
9:30 PM 66.2 °F 50.0 °F 56% 30.06 in 5.6 mi South 15.0 mph - N/A   Clear
10:00 PM 66.2 °F 51.8 °F 60% 30.06 in 5.6 mi South 10.4 mph - N/A   Clear
10:30 PM 64.4 °F 51.8 °F 64% 30.06 in 5.6 mi South 9.2 mph - N/A   Clear
11:00 PM 63 °F 52 °F 58% 30.06 in - SSW 8.1 mph - -  
11:00 PM 62.6 °F 51.8 °F 68% 30.04 in 5.6 mi SSW 8.1 mph - N/A   Clear
11:30 PM 59.0 °F 51.8 °F 77% 30.04 in 5.6 mi SSW 6.9 mph - N/A   Clear